Location: Newark
(49.8969°N, 3.3422°E)
Time: 22:21:12
(UTC+00:00)

deb Explorer IX - Pass Details

Date: 23 January 2020
Orbit: 549 x 1099 km, 38.8° (Epoch: 18 February)

Event Time Altitude Azimuth Distance (km) Brightness Sun altitude
Rises 03:36:20 0° 265° (W) 3,854 - -37.5°
Reaches altitude 10° 03:40:19 10° 246° (WSW) 2,829 - -36.9°
Maximum altitude 03:44:10 16° 212° (SSW) 2,342 - -36.3°
Drops below altitude 10° 03:47:47 10° 177° (S) 2,635 - -35.7°
Exits shadow 03:50:08 - 162° (SSE) 3,147 ? -35.3°
Sets 03:51:18 0° 156° (SSE) 3,460 ? -35.1°
